Time,TemperatureF,DewpointF,PressureIn,WindDirection,WindDirectionDegrees,WindSpeedMPH,WindSpeedGustMPH,Humidity,HourlyPrecipIn,Conditions,Clouds,dailyrainin,SoftwareType,DateUTC
2013-03-15 00:00:00,48.6,36.5,30.00,WNW,293,0.9,0.9,63,0.00,,,0.00,WUHU216HW,2013-03-15 07:00:00,
2013-03-15 00:05:00,48.6,36.5,30.00,WNW,293,0.9,0.9,63,0.00,,,0.00,WUHU216HW,2013-03-15 07:05:00,
2013-03-15 00:29:00,48.2,36.6,30.00,WNW,293,1.1,1.1,64,0.00,,,0.00,WUHU216HW,2013-03-15 07:29:00,
2013-03-15 00:30:00,48.2,36.6,30.00,WNW,293,1.1,1.1,64,0.00,,,0.00,WUHU216HW,2013-03-15 07:30:00,
2013-03-15 00:35:00,48.2,36.6,30.00,WNW,293,1.1,1.1,64,0.00,,,0.00,WUHU216HW,2013-03-15 07:35:00,
2013-03-15 00:59:00,47.9,35.9,29.99,WNW,293,1.1,1.1,63,0.00,,,0.00,WUHU216HW,2013-03-15 07:59:00,
2013-03-15 01:00:00,47.9,35.9,29.99,WNW,293,1.1,1.1,63,0.00,,,0.00,WUHU216HW,2013-03-15 08:00:00,
2013-03-15 01:05:00,47.9,35.9,29.99,WNW,293,1.1,1.1,63,0.00,,,0.00,WUHU216HW,2013-03-15 08:05:00,
2013-03-15 01:30:00,47.5,34.7,29.99,West,270,1.1,1.1,61,0.00,,,0.00,WUHU216HW,2013-03-15 08:30:00,
2013-03-15 01:35:00,47.5,34.7,29.99,West,270,1.1,1.1,61,0.00,,,0.00,WUHU216HW,2013-03-15 08:35:00,
2013-03-15 02:00:00,47.3,34.6,30.00,West,270,1.3,1.3,61,0.00,,,0.00,WUHU216HW,2013-03-15 09:00:00,
2013-03-15 02:05:00,47.3,34.6,30.00,West,270,1.3,1.3,61,0.00,,,0.00,WUHU216HW,2013-03-15 09:05:00,
2013-03-15 02:30:00,47.0,35.8,29.99,WNW,293,1.1,1.1,65,0.00,,,0.00,WUHU216HW,2013-03-15 09:30:00,
2013-03-15 02:35:00,47.0,35.8,29.99,WNW,293,1.1,1.1,65,0.00,,,0.00,WUHU216HW,2013-03-15 09:35:00,
2013-03-15 03:00:00,46.8,34.5,29.98,WNW,293,1.6,1.6,62,0.00,,,0.00,WUHU216HW,2013-03-15 10:00:00,
2013-03-15 03:05:00,46.8,34.5,29.98,WNW,293,1.6,1.6,62,0.00,,,0.00,WUHU216HW,2013-03-15 10:05:00,
2013-03-15 03:30:00,47.2,33.1,29.98,West,270,1.6,1.6,58,0.00,,,0.00,WUHU216HW,2013-03-15 10:30:00,
2013-03-15 03:35:00,47.2,33.1,29.98,West,270,1.6,1.6,58,0.00,,,0.00,WUHU216HW,2013-03-15 10:35:00,
2013-03-15 04:00:00,47.5,34.7,29.98,WNW,293,1.8,1.8,61,0.00,,,0.00,WUHU216HW,2013-03-15 11:00:00,
2013-03-15 04:05:00,47.5,34.7,29.98,WNW,293,1.8,1.8,61,0.00,,,0.00,WUHU216HW,2013-03-15 11:05:00,
2013-03-15 04:30:00,47.0,35.8,29.98,WNW,293,0.7,0.7,65,0.00,,,0.00,WUHU216HW,2013-03-15 11:30:00,
2013-03-15 04:35:00,47.0,35.8,29.98,WNW,293,0.7,0.7,65,0.00,,,0.00,WUHU216HW,2013-03-15 11:35:00,
2013-03-15 04:59:00,46.6,33.5,29.97,WNW,293,1.1,1.1,60,0.00,,,0.00,WUHU216HW,2013-03-15 11:59:00,
2013-03-15 05:00:00,46.6,33.5,29.97,WNW,293,1.1,1.1,60,0.00,,,0.00,WUHU216HW,2013-03-15 12:00:00,
2013-03-15 05:05:00,46.6,33.5,29.97,WNW,293,1.1,1.1,60,0.00,,,0.00,WUHU216HW,2013-03-15 12:05:00,
2013-03-15 05:29:00,47.0,33.4,29.98,WNW,293,1.1,1.1,59,0.00,,,0.00,WUHU216HW,2013-03-15 12:29:00,
2013-03-15 05:30:00,47.0,33.4,29.98,WNW,293,1.1,1.1,59,0.00,,,0.00,WUHU216HW,2013-03-15 12:30:00,
2013-03-15 05:35:00,47.0,33.4,29.98,WNW,293,1.1,1.1,59,0.00,,,0.00,WUHU216HW,2013-03-15 12:35:00,
2013-03-15 05:59:00,47.2,34.0,29.97,WNW,293,0.7,0.7,60,0.00,,,0.00,WUHU216HW,2013-03-15 12:59:00,
2013-03-15 06:00:00,47.2,34.0,29.97,WNW,293,0.7,0.7,60,0.00,,,0.00,WUHU216HW,2013-03-15 13:00:00,
2013-03-15 06:05:00,47.2,34.0,29.97,WNW,293,0.7,0.7,60,0.00,,,0.00,WUHU216HW,2013-03-15 13:05:00,
2013-03-15 06:29:00,47.0,34.2,29.97,WNW,293,1.1,1.1,61,0.00,,,0.00,WUHU216HW,2013-03-15 13:29:00,
2013-03-15 06:30:00,47.0,34.2,29.97,WNW,293,1.1,1.1,61,0.00,,,0.00,WUHU216HW,2013-03-15 13:30:00,
2013-03-15 06:35:00,47.0,34.2,29.97,WNW,293,1.1,1.1,61,0.00,,,0.00,WUHU216HW,2013-03-15 13:35:00,
2013-03-15 06:59:00,46.8,34.8,29.97,WNW,293,1.1,1.1,63,0.00,,,0.00,WUHU216HW,2013-03-15 13:59:00,
2013-03-15 07:00:00,46.8,34.8,29.97,WNW,293,1.1,1.1,63,0.00,,,0.00,WUHU216HW,2013-03-15 14:00:00,
2013-03-15 07:05:00,46.8,34.8,29.97,WNW,293,1.1,1.1,63,0.00,,,0.00,WUHU216HW,2013-03-15 14:05:00,
2013-03-15 07:29:00,46.6,35.5,29.97,WNW,293,1.1,1.1,65,0.00,,,0.00,WUHU216HW,2013-03-15 14:29:00,
2013-03-15 07:30:00,46.6,35.5,29.97,WNW,293,1.1,1.1,65,0.00,,,0.00,WUHU216HW,2013-03-15 14:30:00,
2013-03-15 07:35:00,46.6,35.5,29.97,WNW,293,1.1,1.1,65,0.00,,,0.00,WUHU216HW,2013-03-15 14:35:00,
2013-03-15 07:59:00,47.7,36.1,29.97,WNW,293,0.7,0.7,64,0.00,,,0.00,WUHU216HW,2013-03-15 14:59:00,
2013-03-15 08:00:00,47.7,36.1,29.97,WNW,293,0.7,0.7,64,0.00,,,0.00,WUHU216HW,2013-03-15 15:00:00,
2013-03-15 08:05:00,47.7,36.1,29.97,WNW,293,0.7,0.7,64,0.00,,,0.00,WUHU216HW,2013-03-15 15:05:00,
2013-03-15 08:29:00,50.2,38.4,29.97,NW,315,0.0,0.0,64,0.00,,,0.00,WUHU216HW,2013-03-15 15:29:00,
2013-03-15 08:30:00,50.2,38.4,29.97,NW,315,0.0,0.0,64,0.00,,,0.00,WUHU216HW,2013-03-15 15:30:00,
2013-03-15 08:35:00,50.2,38.4,29.97,NW,315,0.0,0.0,64,0.00,,,0.00,WUHU216HW,2013-03-15 15:35:00,
2013-03-15 08:59:00,52.9,41.4,29.98,North,0,0.0,0.0,65,0.00,,,0.00,WUHU216HW,2013-03-15 15:59:00,
2013-03-15 09:00:00,52.9,41.4,29.98,North,0,0.0,0.0,65,0.00,,,0.00,WUHU216HW,2013-03-15 16:00:00,
2013-03-15 09:05:00,52.9,41.4,29.98,North,0,0.0,0.0,65,0.00,,,0.00,WUHU216HW,2013-03-15 16:05:00,
2013-03-15 09:29:00,54.9,42.5,29.99,North,0,0.0,0.0,63,0.00,,,0.00,WUHU216HW,2013-03-15 16:29:00,
2013-03-15 09:30:00,54.9,42.5,29.99,North,0,0.0,0.0,63,0.00,,,0.00,WUHU216HW,2013-03-15 16:30:00,
2013-03-15 09:35:00,54.9,42.5,29.99,North,0,0.0,0.0,63,0.00,,,0.00,WUHU216HW,2013-03-15 16:35:00,
2013-03-15 09:59:00,58.0,43.3,29.99,East,90,0.0,0.0,58,0.00,,,0.00,WUHU216HW,2013-03-15 16:59:00,
2013-03-15 10:00:00,58.0,43.3,29.99,East,90,0.0,0.0,58,0.00,,,0.00,WUHU216HW,2013-03-15 17:00:00,
2013-03-15 10:05:00,58.0,43.3,29.99,East,90,0.0,0.0,58,0.00,,,0.00,WUHU216HW,2013-03-15 17:05:00,
2013-03-15 10:29:00,57.2,43.6,29.99,ESE,113,0.4,0.4,60,0.00,,,0.00,WUHU216HW,2013-03-15 17:29:00,
2013-03-15 10:30:00,57.2,43.6,29.99,ESE,113,0.4,0.4,60,0.00,,,0.00,WUHU216HW,2013-03-15 17:30:00,
2013-03-15 10:35:00,57.2,43.6,29.99,ESE,113,0.4,0.4,60,0.00,,,0.00,WUHU216HW,2013-03-15 17:35:00,
2013-03-15 10:59:00,58.7,43.0,29.99,East,90,1.3,1.3,56,0.00,,,0.00,WUHU216HW,2013-03-15 17:59:00,
2013-03-15 11:00:00,58.7,43.0,29.99,East,90,1.3,1.3,56,0.00,,,0.00,WUHU216HW,2013-03-15 18:00:00,
2013-03-15 11:05:00,58.7,43.0,29.99,East,90,1.3,1.3,56,0.00,,,0.00,WUHU216HW,2013-03-15 18:05:00,
2013-03-15 11:30:00,59.6,46.2,30.00,East,90,1.1,1.1,61,0.00,,,0.00,WUHU216HW,2013-03-15 18:30:00,
2013-03-15 11:35:00,59.6,46.2,30.00,East,90,1.1,1.1,61,0.00,,,0.00,WUHU216HW,2013-03-15 18:35:00,
2013-03-15 11:59:00,60.8,47.8,29.99,East,90,1.1,1.1,62,0.00,,,0.00,WUHU216HW,2013-03-15 18:59:00,
2013-03-15 12:00:00,60.8,47.8,29.99,East,90,1.1,1.1,62,0.00,,,0.00,WUHU216HW,2013-03-15 19:00:00,
2013-03-15 12:05:00,60.8,47.8,29.99,East,90,1.1,1.1,62,0.00,,,0.00,WUHU216HW,2013-03-15 19:05:00,
2013-03-15 12:30:00,61.2,47.4,29.99,ENE,68,1.8,1.8,60,0.00,,,0.00,WUHU216HW,2013-03-15 19:30:00,
2013-03-15 12:35:00,61.2,47.4,29.99,ENE,68,1.8,1.8,60,0.00,,,0.00,WUHU216HW,2013-03-15 19:35:00,
2013-03-15 12:59:00,61.9,47.4,29.98,NE,45,1.3,1.3,59,0.00,,,0.00,WUHU216HW,2013-03-15 19:59:00,
2013-03-15 13:00:00,61.9,47.4,29.98,NE,45,1.3,1.3,59,0.00,,,0.00,WUHU216HW,2013-03-15 20:00:00,
2013-03-15 13:05:00,61.9,47.4,29.98,NE,45,1.3,1.3,59,0.00,,,0.00,WUHU216HW,2013-03-15 20:05:00,
2013-03-15 13:29:00,64.3,48.6,29.98,ENE,68,0.7,0.7,57,0.00,,,0.00,WUHU216HW,2013-03-15 20:29:00,
2013-03-15 13:30:00,64.3,48.6,29.98,ENE,68,0.7,0.7,57,0.00,,,0.00,WUHU216HW,2013-03-15 20:30:00,
2013-03-15 13:35:00,64.3,48.6,29.98,ENE,68,0.7,0.7,57,0.00,,,0.00,WUHU216HW,2013-03-15 20:35:00,
2013-03-15 13:59:00,65.7,49.5,29.97,ESE,113,0.0,0.0,56,0.00,,,0.00,WUHU216HW,2013-03-15 20:59:00,
2013-03-15 14:00:00,65.7,49.5,29.97,ESE,113,0.0,0.0,56,0.00,,,0.00,WUHU216HW,2013-03-15 21:00:00,
2013-03-15 14:05:00,65.7,49.5,29.97,ESE,113,0.0,0.0,56,0.00,,,0.00,WUHU216HW,2013-03-15 21:05:00,
2013-03-15 14:29:00,67.7,49.4,29.97,ESE,113,1.6,1.6,52,0.00,,,0.00,WUHU216HW,2013-03-15 21:29:00,
2013-03-15 14:30:00,67.7,49.4,29.97,ESE,113,1.6,1.6,52,0.00,,,0.00,WUHU216HW,2013-03-15 21:30:00,
2013-03-15 14:35:00,67.7,49.4,29.97,ESE,113,1.6,1.6,52,0.00,,,0.00,WUHU216HW,2013-03-15 21:35:00,
2013-03-15 14:59:00,67.0,50.2,29.97,ESE,113,0.0,0.0,55,0.00,,,0.00,WUHU216HW,2013-03-15 21:59:00,
2013-03-15 15:00:00,67.0,50.2,29.97,ESE,113,0.0,0.0,55,0.00,,,0.00,WUHU216HW,2013-03-15 22:00:00,
2013-03-15 15:05:00,67.0,50.2,29.97,ESE,113,0.0,0.0,55,0.00,,,0.00,WUHU216HW,2013-03-15 22:05:00,
2013-03-15 15:29:00,64.8,51.8,29.96,SW,225,0.0,0.0,63,0.00,,,0.00,WUHU216HW,2013-03-15 22:29:00,
2013-03-15 15:30:00,64.8,51.8,29.96,SW,225,0.0,0.0,63,0.00,,,0.00,WUHU216HW,2013-03-15 22:30:00,
2013-03-15 15:35:00,64.8,51.8,29.96,SW,225,0.0,0.0,63,0.00,,,0.00,WUHU216HW,2013-03-15 22:35:00,
2013-03-15 16:00:00,65.5,48.4,29.96,SE,135,0.9,0.9,54,0.00,,,0.00,WUHU216HW,2013-03-15 23:00:00,
2013-03-15 16:05:00,65.5,48.4,29.96,SE,135,0.9,0.9,54,0.00,,,0.00,WUHU216HW,2013-03-15 23:05:00,
2013-03-15 16:30:00,63.4,52.2,29.96,SW,225,2.0,2.0,67,0.00,,,0.00,WUHU216HW,2013-03-15 23:30:00,
2013-03-15 16:35:00,63.4,52.2,29.96,SW,225,2.0,2.0,67,0.00,,,0.00,WUHU216HW,2013-03-15 23:35:00,
2013-03-15 16:59:00,60.3,50.9,29.96,WSW,248,1.3,1.3,71,0.00,,,0.00,WUHU216HW,2013-03-15 23:59:00,
2013-03-15 17:00:00,60.3,50.9,29.96,WSW,248,1.3,1.3,71,0.00,,,0.00,WUHU216HW,2013-03-16 00:00:00,
2013-03-15 17:05:00,60.3,50.9,29.96,WSW,248,1.3,1.3,71,0.00,,,0.00,WUHU216HW,2013-03-16 00:05:00,
2013-03-15 17:30:00,59.2,50.6,29.96,West,270,2.5,2.5,73,0.00,,,0.00,WUHU216HW,2013-03-16 00:30:00,
2013-03-15 17:35:00,59.2,50.6,29.96,West,270,2.5,2.5,73,0.00,,,0.00,WUHU216HW,2013-03-16 00:35:00,
2013-03-15 18:00:00,58.7,50.0,29.96,WSW,248,1.3,1.3,73,0.00,,,0.00,WUHU216HW,2013-03-16 01:00:00,
2013-03-15 18:05:00,58.7,50.0,29.96,WSW,248,1.3,1.3,73,0.00,,,0.00,WUHU216HW,2013-03-16 01:05:00,
2013-03-15 18:30:00,56.2,49.7,29.95,West,270,1.1,1.1,79,0.00,,,0.00,WUHU216HW,2013-03-16 01:30:00,
2013-03-15 18:35:00,56.2,49.7,29.95,West,270,1.1,1.1,79,0.00,,,0.00,WUHU216HW,2013-03-16 01:35:00,
2013-03-15 18:59:00,54.7,49.0,29.95,West,270,1.1,1.1,81,0.00,,,0.00,WUHU216HW,2013-03-16 01:59:00,
2013-03-15 19:00:00,54.7,49.0,29.95,West,270,1.1,1.1,81,0.00,,,0.00,WUHU216HW,2013-03-16 02:00:00,
2013-03-15 19:05:00,54.7,49.0,29.95,West,270,1.1,1.1,81,0.00,,,0.00,WUHU216HW,2013-03-16 02:05:00,
2013-03-15 19:29:00,53.6,48.6,29.94,WNW,293,0.7,0.7,83,0.00,,,0.00,WUHU216HW,2013-03-16 02:29:00,
2013-03-15 19:30:00,53.6,48.6,29.94,WNW,293,0.7,0.7,83,0.00,,,0.00,WUHU216HW,2013-03-16 02:30:00,
2013-03-15 19:35:00,53.6,48.6,29.94,WNW,293,0.7,0.7,83,0.00,,,0.00,WUHU216HW,2013-03-16 02:35:00,
2013-03-15 19:59:00,52.0,47.4,29.94,West,270,1.3,1.3,84,0.00,,,0.00,WUHU216HW,2013-03-16 02:59:00,
2013-03-15 20:00:00,52.0,47.4,29.94,West,270,1.3,1.3,84,0.00,,,0.00,WUHU216HW,2013-03-16 03:00:00,
2013-03-15 20:05:00,52.0,47.4,29.94,West,270,1.3,1.3,84,0.00,,,0.00,WUHU216HW,2013-03-16 03:05:00,
2013-03-15 20:29:00,50.8,47.0,29.94,NW,315,1.8,1.8,87,0.00,,,0.00,WUHU216HW,2013-03-16 03:29:00,
2013-03-15 20:30:00,50.8,47.0,29.94,NW,315,1.8,1.8,87,0.00,,,0.00,WUHU216HW,2013-03-16 03:30:00,
2013-03-15 20:35:00,50.8,47.0,29.94,NW,315,1.8,1.8,87,0.00,,,0.00,WUHU216HW,2013-03-16 03:35:00,
2013-03-15 20:59:00,52.6,46.6,29.94,WNW,293,0.9,0.9,80,0.00,,,0.00,WUHU216HW,2013-03-16 03:59:00,
2013-03-15 21:00:00,52.6,46.6,29.94,WNW,293,0.9,0.9,80,0.00,,,0.00,WUHU216HW,2013-03-16 04:00:00,
2013-03-15 21:05:00,52.6,46.6,29.94,WNW,293,0.9,0.9,80,0.00,,,0.00,WUHU216HW,2013-03-16 04:05:00,
2013-03-15 21:29:00,52.2,46.3,29.95,WNW,293,1.8,1.8,80,0.00,,,0.00,WUHU216HW,2013-03-16 04:29:00,
2013-03-15 21:30:00,52.2,46.3,29.95,WNW,293,1.8,1.8,80,0.00,,,0.00,WUHU216HW,2013-03-16 04:30:00,
2013-03-15 21:35:00,52.2,46.3,29.95,WNW,293,1.8,1.8,80,0.00,,,0.00,WUHU216HW,2013-03-16 04:35:00,
2013-03-15 21:59:00,50.2,44.9,29.95,SSW,203,1.8,1.8,82,0.00,,,0.00,WUHU216HW,2013-03-16 04:59:00,
2013-03-15 22:00:00,50.2,44.9,29.95,SSW,203,1.8,1.8,82,0.00,,,0.00,WUHU216HW,2013-03-16 05:00:00,
2013-03-15 22:05:00,50.2,44.9,29.95,SSW,203,1.8,1.8,82,0.00,,,0.00,WUHU216HW,2013-03-16 05:05:00,
2013-03-15 22:29:00,46.6,43.7,29.95,West,270,1.8,1.8,89,0.00,,,0.00,WUHU216HW,2013-03-16 05:29:00,
2013-03-15 22:30:00,46.6,43.7,29.95,West,270,1.8,1.8,89,0.00,,,0.00,WUHU216HW,2013-03-16 05:30:00,
2013-03-15 22:35:00,46.6,43.7,29.95,West,270,1.8,1.8,89,0.00,,,0.00,WUHU216HW,2013-03-16 05:35:00,
2013-03-15 22:59:00,45.7,43.3,29.95,West,270,1.8,1.8,91,0.00,,,0.00,WUHU216HW,2013-03-16 05:59:00,
2013-03-15 23:00:00,45.7,43.3,29.95,West,270,1.8,1.8,91,0.00,,,0.00,WUHU216HW,2013-03-16 06:00:00,
2013-03-15 23:05:00,45.7,43.3,29.95,West,270,1.8,1.8,91,0.00,,,0.00,WUHU216HW,2013-03-16 06:05:00,
2013-03-15 23:29:00,45.4,42.9,29.95,WNW,293,0.4,0.4,91,0.00,,,0.00,WUHU216HW,2013-03-16 06:29:00,
2013-03-15 23:30:00,45.4,42.9,29.95,WNW,293,0.4,0.4,91,0.00,,,0.00,WUHU216HW,2013-03-16 06:30:00,
2013-03-15 23:35:00,45.4,42.9,29.95,WNW,293,0.4,0.4,91,0.00,,,0.00,WUHU216HW,2013-03-16 06:35:00,
2013-03-15 23:59:00,45.0,42.8,29.95,WSW,248,3.1,3.1,92,0.00,,,0.00,WUHU216HW,2013-03-16 06:59:00,